weather.gov     
National Weather Service

Weather Roundup
NWS Homepage
This page is being discontinued on March 12, 2014.
The same data is available at this site. Please update your bookmarks.
Thank you, and we apologize for the inconvenience.
Please send an email to SR-SRH.Webmaster@noaa.gov with any concerns.


Current Version
Previous Version:    01  02  03  04  05  06  07  08  09  10  11  12  13  14  15  16  17  18  19  20  21  22  23  24  25  26  27  28  29  30  
   31  32  33  34  35  36  37  38  39  40  41  42  43  44  45  46  47  48  49  50  51  52  53  54  55  56  57  58  59  60  
[Printable]
324
NZUS99 KSGF 260007
HRRSGF

HOURLY WEATHER
NATIONAL WEATHER SERVICE SPRINGFIELD MO
600 PM CST SUN JAN 25 2015

......SGF CWA......

CITY           SKY/WX    TMP DP  RH WIND       PRES   REMARKS
SPRINGFIELD    LGT RAIN  36  33  89 NW23G32   29.95R WCI  24
6HR MIN TEMP:  36; 6HR MAX TEMP:  39; 6HR PCP: TRACE;

JOPLIN         CLOUDY    41  32  70 NW20G30   30.03R
6HR MIN TEMP:  41; 6HR MAX TEMP:  42;

WEST PLAINS    CLOUDY    38  34  85 NW13G23   29.85R WCI  30
6HR MIN TEMP:  37; 6HR MAX TEMP:  48; 6HR PCP:  0.01;

ROLLA          LGT SNOW  33  30  88 NW21      29.88R FOG     WCI  21
6HR MIN TEMP:  33; 6HR MAX TEMP:  42; 6HR PCP:  0.04;

OSAGE BEACH    CLOUDY    36  30  80 NW10      29.94R WCI  28
BRANSON        LGT RAIN  37  34  87 NW23G31   29.92R WCI  26

......SURROUNDING SGF CWA......

CITY           SKY/WX    TMP DP  RH WIND       PRES   REMARKS
CHANUTE        CLOUDY    42  32  67 N18G29    30.08R
PARSONS        CLOUDY    44  32  62 N22G31    30.08R
COFFEYVILLE    CLOUDY    45  31  58 NW17G25   30.08R
EMPORIA        CLOUDY    40  30  67 N12       30.08R WCI  33
GROVE OK       CLOUDY    45  32  61 NW18G24   30.05R
ROGERS AR      CLOUDY    41  32  70 NW13G23   29.99R
SILOAM SPRINGS CLOUDY    43  28  56 NW16G28   30.02R
HARRISON AR    CLOUDY    40  33  76 NW18G31   29.91R WCI  31
NEAR YELLVILLE CLOUDY    39  32  75 NW14G24   29.91R WCI  31

......KANSAS AND MISSOURI......

CITY           SKY/WX    TMP DP  RH WIND       PRES   REMARKS
KANSAS CTY INT CLOUDY    37  31  78 N10       30.06R WCI  30
DOWNTOWN KC    CLOUDY    40  31  70 N13       30.06R WCI  32
COLUMBIA       CLOUDY    33  30  88 N18       29.95R WCI  22
SEDALIA        CLOUDY    35  31  85 N20       30.00R WCI  24
ST JOSEPH      CLOUDY    37  31  78 N12       30.09R WCI  29
ST LOUIS       LGT RAIN  37  33  85 N20G28    29.84R FOG     WCI  27
SPIRIT OF STL  LGT RAIN  37  34  89 N12G23    29.86R WCI  29
KIRKSVILLE     CLOUDY    30  28  92 N15G22    30.01R WCI  19
WICHITA        PTCLDY    47  28  47 N15       30.09R
TOPEKA         CLOUDY    40  31  70 N8        30.10R WCI  34
OLATHE         CLOUDY    39  31  72 N18G29    30.04R WCI  30

......TENNESSEE......

CITY           SKY/WX    TMP DP  RH WIND       PRES   REMARKS
MEMPHIS        CLOUDY    48  38  68 NW15G25   29.80R
NASHVILLE      CLOUDY    47  42  83 W6        29.70R

......ARKANSAS.......

CITY           SKY/WX    TMP DP  RH WIND       PRES   REMARKS
FAYETTEVILLE   CLOUDY    42  32  67 NW18G29   29.99R
FT SMITH       CLOUDY    51  31  46 NW14G23   30.00R
LITTLE ROCK    CLOUDY    51  30  44 NW20G37   29.91R

......OKLAHOMA.......

CITY           SKY/WX    TMP DP  RH WIND       PRES   REMARKS
TULSA          MOCLDY    50  32  50 NW17G25   30.05R
PONCA CITY     CLEAR     47  29  49 N13       30.09R
MCALESTER      PTCLDY    52  31  44 N15       30.04R
OKLAHOMA CITY  PTCLDY    52  26  36 N14       30.08R

......IOWA............

CITY           SKY/WX    TMP DP  RH WIND       PRES   REMARKS
DES MOINES     CLOUDY    34  27  75 N10       30.05R WCI  26
QUAD CITIES    PTCLDY    27  17  66 N15       30.00R WCI  15

......ILLINOIS........

CITY           SKY/WX    TMP DP  RH WIND       PRES   REMARKS
QUINCY         CLOUDY    31  27  85 N16       29.94R WCI  20
CHICAGO        CLOUDY    26  17  68 N16       29.94R WCI  14





U.S. Dept. of Commerce
NOAA National Weather Service
1325 East West Highway
Silver Spring, MD 20910
E-mail: w-nws.webmaster@noaa.gov
Page last modified: May 16, 2007
NATIONAL WEATHER SERVICE: for Safety, for Work, for Fun - FOR LIFE